Location: Lafig�re
(44.4503°N, 4.0357°E)
Time: 17:31:30
(UTC+00:00)

S-56A Canister/Altair - Pass Details

Date: 21 January 2021
Orbit: 631 x 2501 km, 38.9° (Epoch: 04 March)

Event Time Altitude Azimuth Distance (km) Brightness Sun altitude
Rises 06:42:38 0° 269° (W) 3,107 - -5.7°
Exits shadow 06:43:27 - 267° (W) 2,800 9.9 -5.6°
Reaches altitude 10° 06:44:51 10° 261° (W) 2,309 9.5 -5.4°
Maximum altitude 06:49:49 41° 192° (SSW) 1,344 8.9 -4.5°
Drops below altitude 10° 06:56:49 10° 125° (SE) 3,245 12.6 -3.4°
Sets 07:00:29 0° 120° (ESE) 4,536 14.6 -2.8°
